Find Astra 1N

NORAD ID: 37775 Int'l Des: 2011-041 Owner: SESE/SESSA Country: L operational
HEOCIRCULARGSOGEO

Live Position

Loading 3D Globe...

About Astra 1N

Description loading...

Upcoming Passes

Passes for default location (London). Set your location on the main map for personalized predictions.

Altitude History

Loading altitude history...

Two-Line Element Set

1 37775U 11041A 26106.80079029 .00000127 00000-0 00000+0 0 9995
2 37775 0.1119 53.9996 0005246 356.4083 102.0158 1.00274088 43914
Epoch: Apr 16, 2026 • Age: 7 hours

Current Status

Altitude 35805.5 km
Velocity 3.07 km/s
Sub-Earth Point -0.03°S, 19.16°E
Launch Date Aug 6, 2011
Age 14.6 years
Type other

Technical Details

Classification Payload
Mass 5330.00 kg
Dry Mass 3000.00 kg
Total Mass 5330.00 kg
Length 6.50 m
Diameter 2.80 m
Span 39.80 m
Shape Box + 2 Pan
Manufacturer EADSB
Bus Type Eurostar 3000M
Phase Status In Orbit
Owner/State SESE/SESSA/L

Most Searched